Hlavní strana
METAR-TAF:

METAR-TAF

Letiště :

Greenville, Jižní Karolína, Spojené státy americké

zeměpisná šířka: 34-45-30N, zeměpisná délka: 082-22-35W, výška: 291 m

Aktuální stav počasí

Zpráva byla vytvořena před 19 minutami, v 09:35 UTC
Západojihozápadní vítr 3 kt
Teplota 20°C
Vlhkost vzduchu 100%
Tlak 1017 hPa
Viditelnost: 4.8 km
Zataženo ve výšce 200 ft
kouřmo

METAR: KGYH 300935Z AUTO 24003KT 3SM BR OVC002 20/20 A3002 RMK AO2

Čas: 05:54 (09:54 UTC)


TAF: chybějící

Stav a předpovědi počasí z více než 4 000 letišť (zprávy METAR a TAF).

Červené a žluté tečky na mapě představují dostupné meteorologické stanice.

Když kurzor umístíte na tečku, zobrazí se název stanice.

Pak kliknutím zobrazíte stav a předpověď počasí.

Chcete-li změnit mapu, kliknutím na zelené tlačítko se znaménkem +mapu přiblížíte, kliknutím na zelené tlačítko se znaménkem – mapu oddálíte a kliknutím na zelené šipky přejdete na sousední mapy.


METAR-TAF: